| time (UTC) | temp C | wind direction | speed KPH | gust KPH | rain 1hr cm | rain 24hr cm | rain mn cm | humidity % | barometer mb |
| 20260505185647 | 5 | 316 | 17.7 | 17.7 | 0.00 | 0.00 | 0.00 | 46 | 1014.5 |
| 20260505185143 | 5 | 348 | 17.7 | 22.5 | 0.00 | 0.00 | 0.00 | 45 | 1014.6 |
| 20260505184640 | 5 | 319 | 12.9 | 17.7 | 0.00 | 0.00 | 0.00 | 46 | 1014.4 |
| 20260505184137 | 6 | 334 | 22.5 | 25.7 | 0.00 | 0.00 | 0.00 | 45 | 1014.6 |
| 20260505183634 | 6 | 308 | 17.7 | 24.1 | 0.00 | 0.00 | 0.00 | 44 | 1014.5 |
| 20260505183132 | 5 | 313 | 14.5 | 16.1 | 0.00 | 0.00 | 0.00 | 46 | 1014.5 |
| 20260505182627 | 5 | 282 | 20.9 | 25.7 | 0.00 | 0.00 | 0.00 | 46 | 1014.4 |
| 20260505182124 | 5 | 319 | 16.1 | 17.7 | 0.00 | 0.00 | 0.00 | 46 | 1014.5 |
| 20260505181621 | 5 | 325 | 16.1 | 20.9 | 0.00 | 0.00 | 0.00 | 45 | 1014.5 |
| 20260505181118 | 5 | 338 | 14.5 | 16.1 | 0.00 | 0.00 | 0.00 | 46 | 1014.5 |
| 20260505180614 | 5 | 277 | 11.3 | 16.1 | 0.00 | 0.00 | 0.00 | 47 | 1014.5 |
| 20260505180112 | 5 | 279 | 22.5 | 25.7 | 0.00 | 0.00 | 0.00 | 47 | 1014.5 |
| 20260505175608 | 5 | 315 | 14.5 | 20.9 | 0.00 | 0.00 | 0.00 | 48 | 1014.5 |
| 20260505175104 | 5 | 292 | 11.3 | 16.1 | 0.00 | 0.00 | 0.00 | 48 | 1014.4 |
| 20260505174601 | 5 | 329 | 19.3 | 27.4 | 0.00 | 0.00 | 0.00 | 48 | 1014.5 |
| 20260505174057 | 5 | 313 | 17.7 | 22.5 | 0.00 | 0.00 | 0.00 | 47 | 1014.5 |
| 20260505173554 | 5 | 291 | 20.9 | 25.7 | 0.00 | 0.00 | 0.00 | 47 | 1014.5 |
| 20260505173051 | 5 | 294 | 11.3 | 12.9 | 0.00 | 0.00 | 0.00 | 48 | 1014.9 |
| 20260505172548 | 5 | 301 | 14.5 | 20.9 | 0.00 | 0.00 | 0.00 | 47 | 1014.8 |
| 20260505172045 | 5 | 290 | 16.1 | 22.5 | 0.00 | 0.00 | 0.00 | 46 | 1014.5 |
| 20260505171539 | 5 | 343 | 16.1 | 17.7 | 0.00 | 0.00 | 0.00 | 47 | 1014.5 |
| 20260505171037 | 5 | 336 | 17.7 | 17.7 | 0.00 | 0.00 | 0.00 | 46 | 1014.4 |
| 20260505170534 | 5 | 294 | 11.3 | 14.5 | 0.00 | 0.00 | 0.00 | 48 | 1014.4 |
| 20260505170030 | 5 | 286 | 19.3 | 25.7 | 0.00 | 0.00 | 0.00 | 47 | 1014.4 |
| 20260505165525 | 5 | 281 | 11.3 | 12.9 | 0.00 | 0.00 | 0.00 | 48 | 1014.5 |
| 20260505165021 | 5 | 318 | 19.3 | 22.5 | 0.00 | 0.00 | 0.00 | 48 | 1014.5 |
| 20260505164517 | 6 | 294 | 9.7 | 11.3 | 0.00 | 0.00 | 0.00 | 50 | 1014.5 |
| 20260505164015 | 5 | 351 | 11.3 | 14.5 | 0.00 | 0.00 | 0.00 | 52 | 1014.5 |
| 20260505163514 | 4 | 313 | 14.5 | 24.1 | 0.00 | 0.00 | 0.00 | 52 | 1014.6 |
| 20260505163010 | 4 | 291 | 14.5 | 20.9 | 0.00 | 0.00 | 0.00 | 51 | 1014.6 |
| 20260505162503 | 4 | 293 | 20.9 | 24.1 | 0.00 | 0.00 | 0.00 | 50 | 1014.5 |
| 20260505162000 | 4 | 288 | 16.1 | 17.7 | 0.00 | 0.00 | 0.00 | 51 | 1014.6 |
| 20260505161457 | 4 | 323 | 14.5 | 20.9 | 0.00 | 0.00 | 0.00 | 50 | 1014.4 |
| 20260505160954 | 5 | 327 | 12.9 | 14.5 | 0.00 | 0.00 | 0.00 | 52 | 1014.5 |
| 20260505160452 | 4 | 331 | 16.1 | 22.5 | 0.00 | 0.00 | 0.00 | 51 | 1014.2 |
| 20260505152923 | 3 | 300 | 14.5 | 16.1 | 0.00 | 0.00 | 0.00 | 54 | 1014.3 |
| 20260505152420 | 4 | 348 | 22.5 | 27.4 | 0.00 | 0.00 | 0.00 | 52 | 1014.3 |
| 20260505151919 | 3 | 312 | 11.3 | 12.9 | 0.00 | 0.00 | 0.00 | 57 | 1014.2 |
| 20260505151410 | 3 | 315 | 12.9 | 16.1 | 0.00 | 0.00 | 0.00 | 58 | 1014.2 |
| 20260505150908 | 4 | 306 | 11.3 | 14.5 | 0.00 | 0.00 | 0.00 | 56 | 1014.3 |
| 20260505150404 | 4 | 306 | 14.5 | 17.7 | 0.00 | 0.00 | 0.00 | 59 | 1014.3 |
| 20260505140329 | 3 | 321 | 19.3 | 22.5 | 0.00 | 0.00 | 0.00 | 61 | 1013.9 |
| 20260505130252 | 2 | 290 | 17.7 | 22.5 | 0.00 | 0.00 | 0.00 | 66 | 1013.4 |
| 20260505124743 | 2 | 326 | 14.5 | 16.1 | 0.00 | 0.00 | 0.00 | 66 | 1013.4 |
| 20260505124240 | 2 | 303 | 8.0 | 9.7 | 0.00 | 0.00 | 0.00 | 68 | 1013.3 |
| 20260505123735 | 2 | 306 | 11.3 | 12.9 | 0.00 | 0.00 | 0.00 | 68 | 1013.2 |
| 20260505123232 | 2 | 306 | 11.3 | 12.9 | 0.00 | 0.00 | 0.00 | 69 | 1013.2 |
| 20260505122728 | 1 | 286 | 12.9 | 14.5 | 0.00 | 0.00 | 0.00 | 70 | 1013.1 |
| 20260505122226 | 1 | 299 | 11.3 | 14.5 | 0.00 | 0.00 | 0.00 | 70 | 1013.0 |
| 20260505121722 | 1 | 278 | 8.0 | 12.9 | 0.00 | 0.00 | 0.00 | 71 | 1013.2 |
| 20260505121219 | 1 | 312 | 9.7 | 11.3 | 0.00 | 0.00 | 0.00 | 72 | 1012.6 |
| 20260505120715 | 1 | 272 | 8.0 | 9.7 | 0.00 | 0.00 | 0.00 | 72 | 1012.6 |
| 20260505120212 | 1 | 279 | 6.4 | 11.3 | 0.00 | 0.00 | 0.00 | 73 | 1012.7 |
| 20260505115710 | 1 | 277 | 8.0 | 9.7 | 0.00 | 0.00 | 0.00 | 73 | 1012.9 |
| 20260505115208 | 1 | 287 | 8.0 | 9.7 | 0.00 | 0.00 | 0.00 | 73 | 1012.9 |
| 20260505114705 | 1 | 298 | 8.0 | 11.3 | 0.00 | 0.00 | 0.00 | 73 | 1012.5 |
| 20260505114201 | 1 | 299 | 8.0 | 11.3 | 0.00 | 0.00 | 0.00 | 73 | 1012.6 |
| 20260505113658 | 1 | 288 | 11.3 | 14.5 | 0.00 | 0.00 | 0.00 | 72 | 1012.6 |
| 20260505113155 | 1 | 284 | 6.4 | 8.0 | 0.00 | 0.00 | 0.00 | 72 | 1012.6 |
| 20260505112651 | 1 | 292 | 8.0 | 9.7 | 0.00 | 0.00 | 0.00 | 73 | 1012.5 |
| 20260505112149 | 1 | 282 | 8.0 | 11.3 | 0.00 | 0.00 | 0.00 | 73 | 1012.4 |
| 20260505111648 | 0 | 299 | 6.4 | 8.0 | 0.00 | 0.00 | 0.00 | 73 | 1012.3 |
| 20260505111144 | 1 | 303 | 11.3 | 12.9 | 0.00 | 0.00 | 0.00 | 73 | 1012.4 |
| 20260505110641 | 0 | 271 | 8.0 | 9.7 | 0.00 | 0.00 | 0.00 | 73 | 1012.5 |
| 20260505110138 | 1 | 304 | 6.4 | 8.0 | 0.00 | 0.00 | 0.00 | 73 | 1012.5 |
| 20260505102114 | 0 | 303 | 4.8 | 4.8 | 0.00 | 0.00 | 0.00 | 73 | 1012.4 |
| 20260505101612 | 0 | 318 | 3.2 | 3.2 | 0.00 | 0.00 | 0.00 | 73 | 1012.4 |
| 20260505101108 | 0 | 353 | 3.2 | 4.8 | 0.00 | 0.00 | 0.00 | 72 | 1012.7 |
| 20260505100605 | 0 | 320 | 3.2 | 3.2 | 0.00 | 0.00 | 0.00 | 72 | 1012.6 |
| 20260505095558 | 0 | 318 | 4.8 | 4.8 | 0.00 | 0.00 | 0.00 | 71 | 1012.5 |
| 20260505095054 | 0 | 283 | 4.8 | 4.8 | 0.00 | 0.00 | 0.00 | 71 | 1012.3 |
| 20260505094551 | 0 | 290 | 4.8 | 4.8 | 0.00 | 0.00 | 0.00 | 70 | 1012.6 |
| 20260505094047 | 0 | 281 | 6.4 | 8.0 | 0.00 | 0.00 | 0.00 | 70 | 1012.7 |
| 20260505093543 | 0 | 298 | 8.0 | 9.7 | 0.00 | 0.00 | 0.00 | 71 | 1012.4 |
| 20260505093041 | 0 | 291 | 6.4 | 8.0 | 0.00 | 0.00 | 0.00 | 71 | 1012.4 |
| 20260505092538 | 0 | 298 | 8.0 | 11.3 | 0.00 | 0.00 | 0.00 | 71 | 1012.3 |
| 20260505092037 | 0 | 302 | 4.8 | 4.8 | 0.00 | 0.00 | 0.00 | 72 | 1012.5 |
| 20260505091533 | 0 | 292 | 4.8 | 8.0 | 0.00 | 0.00 | 0.00 | 71 | 1012.4 |
| 20260505091032 | 0 | 284 | 6.4 | 8.0 | 0.00 | 0.00 | 0.00 | 71 | 1012.4 |
| 20260505090529 | 0 | 271 | 8.0 | 9.7 | 0.00 | 0.00 | 0.00 | 70 | 1012.5 |
| 20260505090027 | 0 | 288 | 8.0 | 9.7 | 0.00 | 0.00 | 0.00 | 70 | 1012.5 |
| 20260505085524 | 0 | 269 | 6.4 | 8.0 | 0.00 | 0.00 | 0.00 | 71 | 1012.2 |
| 20260505085022 | 0 | 283 | 6.4 | 8.0 | 0.00 | 0.00 | 0.00 | 71 | 1012.4 |
| 20260505084520 | 0 | 278 | 6.4 | 8.0 | 0.00 | 0.00 | 0.00 | 70 | 1012.5 |
| 20260505084018 | 0 | 299 | 8.0 | 9.7 | 0.00 | 0.00 | 0.00 | 70 | 1012.2 |
| 20260505083515 | 0 | 280 | 6.4 | 9.7 | 0.00 | 0.00 | 0.00 | 70 | 1012.4 |
| 20260505083012 | 0 | 261 | 9.7 | 11.3 | 0.00 | 0.00 | 0.00 | 70 | 1012.5 |
| 20260505082507 | 0 | 294 | 6.4 | 11.3 | 0.00 | 0.00 | 0.00 | 70 | 1012.4 |
| 20260505082004 | 0 | 276 | 4.8 | 4.8 | 0.00 | 0.00 | 0.00 | 70 | 1012.5 |
| 20260505081501 | 0 | 303 | 4.8 | 4.8 | 0.00 | 0.00 | 0.00 | 70 | 1012.5 |
| 20260505080957 | 0 | 301 | 4.8 | 8.0 | 0.00 | 0.00 | 0.00 | 69 | 1012.2 |
| 20260505080454 | 1 | 284 | 4.8 | 4.8 | 0.00 | 0.00 | 0.00 | 68 | 1012.5 |
| 20260505075949 | 1 | 272 | 4.8 | 8.0 | 0.00 | 0.00 | 0.00 | 68 | 1012.4 |
| 20260505075446 | 1 | 270 | 8.0 | 8.0 | 0.00 | 0.00 | 0.00 | 66 | 1012.4 |
| 20260505074944 | 1 | 285 | 11.3 | 14.5 | 0.00 | 0.00 | 0.00 | 66 | 1012.5 |
| 20260505074441 | 1 | 310 | 6.4 | 9.7 | 0.00 | 0.00 | 0.00 | 65 | 1012.5 |
| 20260505073938 | 1 | 287 | 4.8 | 4.8 | 0.00 | 0.00 | 0.00 | 65 | 1012.3 |
| 20260505073436 | 1 | 290 | 11.3 | 12.9 | 0.00 | 0.00 | 0.00 | 65 | 1012.4 |
| 20260505072933 | 2 | 311 | 11.3 | 12.9 | 0.00 | 0.00 | 0.00 | 64 | 1012.2 |
| 20260505072429 | 2 | 297 | 9.7 | 11.3 | 0.00 | 0.00 | 0.00 | 64 | 1012.3 |
| 20260505071925 | 2 | 319 | 8.0 | 9.7 | 0.00 | 0.00 | 0.00 | 64 | 1012.3 |
| 20260505071421 | 2 | 298 | 8.0 | 9.7 | 0.00 | 0.00 | 0.00 | 63 | 1012.5 |
| 20260505070919 | 2 | 269 | 11.3 | 12.9 | 0.00 | 0.00 | 0.00 | 63 | 1012.1 |
| 20260505070415 | 2 | 305 | 11.3 | 12.9 | 0.00 | 0.00 | 0.00 | 63 | 1012.2 |
| 20260505065911 | 2 | 290 | 11.3 | 14.5 | 0.00 | 0.00 | 0.00 | 62 | 1012.3 |
| 20260505065408 | 2 | 333 | 11.3 | 12.9 | 0.00 | 0.00 | 0.00 | 62 | 1012.4 |
| 20260505064905 | 2 | 281 | 11.3 | 14.5 | 0.00 | 0.00 | 0.00 | 62 | 1012.0 |
| 20260505064402 | 2 | 303 | 11.3 | 14.5 | 0.00 | 0.00 | 0.00 | 62 | 1012.3 |
| 20260505063901 | 2 | 286 | 9.7 | 12.9 | 0.00 | 0.00 | 0.00 | 62 | 1012.3 |
| 20260505063356 | 2 | 300 | 11.3 | 14.5 | 0.00 | 0.00 | 0.00 | 63 | 1012.1 |
| 20260505062853 | 2 | 302 | 6.4 | 8.0 | 0.00 | 0.00 | 0.00 | 63 | 1012.1 |
| 20260505062350 | 1 | 303 | 4.8 | 4.8 | 0.00 | 0.00 | 0.00 | 65 | 1012.0 |
| 20260505061847 | 1 | 269 | 4.8 | 4.8 | 0.00 | 0.00 | 0.00 | 66 | 1012.2 |
| 20260505061345 | 1 | 290 | 4.8 | 4.8 | 0.00 | 0.00 | 0.00 | 66 | 1012.2 |
| 20260505060842 | 1 | 274 | 4.8 | 4.8 | 0.00 | 0.00 | 0.00 | 67 | 1012.0 |
| 20260505060339 | 0 | 309 | 4.8 | 4.8 | 0.00 | 0.00 | 0.00 | 67 | 1011.8 |
| 20260505055835 | 0 | 301 | 6.4 | 9.7 | 0.00 | 0.00 | 0.00 | 67 | 1012.0 |
| 20260505055331 | 0 | 300 | 3.2 | 3.2 | 0.00 | 0.00 | 0.00 | 67 | 1012.0 |
| 20260505054828 | 0 | 304 | 4.8 | 4.8 | 0.00 | 0.00 | 0.00 | 66 | 1011.9 |
| 20260505054326 | 0 | 289 | 3.2 | 3.2 | 0.00 | 0.00 | 0.00 | 67 | 1011.9 |
| 20260505053824 | 0 | 308 | 3.2 | 3.2 | 0.00 | 0.00 | 0.00 | 68 | 1012.1 |
| 20260505053320 | 0 | 305 | 1.6 | 1.6 | 0.00 | 0.00 | 0.00 | 68 | 1012.0 |
| 20260505052817 | 0 | 297 | 1.6 | 1.6 | 0.00 | 0.00 | 0.00 | 67 | 1011.9 |
| 20260505052314 | 0 | 351 | 1.6 | 3.2 | 0.00 | 0.00 | 0.00 | 67 | 1012.0 |
| 20260505051811 | 0 | 18 | 1.6 | 1.6 | 0.00 | 0.00 | 0.00 | 68 | 1011.9 |
| 20260505051309 | 0 | 331 | 1.6 | 1.6 | 0.00 | 0.00 | 0.00 | 68 | 1011.8 |
| 20260505050807 | 0 | 330 | 0.0 | 1.6 | 0.00 | 0.00 | 0.00 | 67 | 1011.7 |
| 20260505050305 | 0 | 335 | 0.0 | 0.0 | 0.00 | 0.00 | 0.00 | 67 | 1011.8 |
| 20260505041735 | 1 | 326 | 6.4 | 8.0 | 0.00 | 0.00 | 0.00 | 60 | 1011.6 |
| 20260505041232 | 1 | 326 | 4.8 | 4.8 | 0.00 | 0.00 | 0.00 | 60 | 1011.5 |
| 20260505040729 | 2 | 289 | 4.8 | 8.0 | 0.00 | 0.00 | 0.00 | 59 | 1011.5 |
| 20260505040226 | 2 | 298 | 4.8 | 4.8 | 0.00 | 0.00 | 0.00 | 58 | 1011.3 |
| 20260505035723 | 2 | 316 | 8.0 | 9.7 | 0.00 | 0.00 | 0.00 | 59 | 1011.5 |
| 20260505035219 | 2 | 344 | 8.0 | 11.3 | 0.00 | 0.00 | 0.00 | 58 | 1011.3 |
| 20260505034716 | 2 | 306 | 4.8 | 4.8 | 0.00 | 0.00 | 0.00 | 59 | 1011.7 |
| 20260505034213 | 2 | 321 | 8.0 | 8.0 | 0.00 | 0.00 | 0.00 | 59 | 1011.3 |
| 20260505033709 | 1 | 318 | 6.4 | 8.0 | 0.00 | 0.00 | 0.00 | 60 | 1011.5 |
| 20260505033208 | 1 | 331 | 4.8 | 8.0 | 0.00 | 0.00 | 0.00 | 60 | 1011.4 |
| 20260505032705 | 2 | 311 | 4.8 | 8.0 | 0.00 | 0.00 | 0.00 | 60 | 1011.4 |
| 20260505032201 | 2 | 331 | 6.4 | 8.0 | 0.00 | 0.00 | 0.00 | 59 | 1011.4 |
| 20260505031658 | 2 | 337 | 4.8 | 4.8 | 0.00 | 0.00 | 0.00 | 58 | 1011.5 |
| 20260505031155 | 2 | 316 | 6.4 | 9.7 | 0.00 | 0.00 | 0.00 | 58 | 1011.1 |
| 20260505030652 | 2 | 320 | 4.8 | 8.0 | 0.00 | 0.00 | 0.00 | 58 | 1011.1 |
| 20260505030147 | 2 | 319 | 4.8 | 4.8 | 0.00 | 0.00 | 0.00 | 58 | 1011.1 |
| 20260505025643 | 2 | 349 | 6.4 | 8.0 | 0.00 | 0.00 | 0.00 | 57 | 1011.1 |
| 20260505025142 | 2 | 315 | 6.4 | 8.0 | 0.00 | 0.00 | 0.00 | 57 | 1010.7 |
| 20260505024639 | 3 | 357 | 4.8 | 4.8 | 0.00 | 0.00 | 0.00 | 57 | 1010.9 |
| 20260505024136 | 3 | 6 | 4.8 | 4.8 | 0.00 | 0.00 | 0.00 | 56 | 1010.6 |
| 20260505023634 | 3 | 329 | 8.0 | 11.3 | 0.00 | 0.00 | 0.00 | 56 | 1010.6 |
| 20260505023131 | 3 | 328 | 9.7 | 9.7 | 0.00 | 0.00 | 0.00 | 55 | 1010.6 |
| 20260505022628 | 3 | 310 | 9.7 | 11.3 | 0.00 | 0.00 | 0.00 | 54 | 1010.7 |
| 20260505022125 | 3 | 331 | 11.3 | 11.3 | 0.00 | 0.00 | 0.00 | 54 | 1010.3 |
| 20260505021622 | 3 | 314 | 6.4 | 11.3 | 0.00 | 0.00 | 0.00 | 54 | 1010.4 |
| 20260505021119 | 3 | 347 | 8.0 | 9.7 | 0.00 | 0.00 | 0.00 | 53 | 1010.3 |
| 20260505020614 | 4 | 319 | 8.0 | 11.3 | 0.00 | 0.00 | 0.00 | 53 | 1010.3 |
| 20260505020111 | 4 | 326 | 9.7 | 12.9 | 0.00 | 0.00 | 0.00 | 52 | 1010.0 |
| 20260505015608 | 5 | 350 | 14.5 | 17.7 | 0.00 | 0.00 | 0.00 | 51 | 1010.1 |
| 20260505015105 | 5 | 314 | 9.7 | 12.9 | 0.00 | 0.00 | 0.00 | 51 | 1010.0 |
| 20260505014601 | 5 | 317 | 11.3 | 12.9 | 0.00 | 0.00 | 0.00 | 51 | 1009.8 |
| 20260505014058 | 5 | 299 | 11.3 | 17.7 | 0.00 | 0.00 | 0.00 | 50 | 1009.9 |
| 20260505013555 | 5 | 338 | 9.7 | 12.9 | 0.00 | 0.00 | 0.00 | 50 | 1009.8 |
| 20260505013053 | 5 | 351 | 16.1 | 22.5 | 0.00 | 0.00 | 0.00 | 50 | 1009.8 |
| 20260505012551 | 5 | 2 | 11.3 | 14.5 | 0.00 | 0.00 | 0.00 | 50 | 1009.8 |
| 20260505012048 | 6 | 326 | 11.3 | 12.9 | 0.00 | 0.00 | 0.00 | 49 | 1009.7 |
| 20260505011543 | 6 | 340 | 9.7 | 11.3 | 0.00 | 0.00 | 0.00 | 48 | 1009.8 |
| 20260505011041 | 6 | 329 | 9.7 | 11.3 | 0.00 | 0.00 | 0.00 | 48 | 1009.6 |
| 20260505010536 | 6 | 301 | 16.1 | 22.5 | 0.00 | 0.00 | 0.00 | 47 | 1009.5 |
| 20260505010033 | 6 | 288 | 24.1 | 32.2 | 0.00 | 0.00 | 0.00 | 45 | 1009.3 |
| 20260505005529 | 6 | 304 | 17.7 | 29.0 | 0.00 | 0.00 | 0.00 | 45 | 1009.4 |
| 20260505005027 | 6 | 338 | 16.1 | 20.9 | 0.00 | 0.00 | 0.00 | 46 | 1009.6 |
| 20260505004523 | 6 | 281 | 17.7 | 22.5 | 0.00 | 0.00 | 0.00 | 47 | 1009.3 |
| 20260505004020 | 7 | 338 | 16.1 | 20.9 | 0.00 | 0.00 | 0.00 | 47 | 1009.7 |
| 20260505003517 | 7 | 313 | 17.7 | 24.1 | 0.00 | 0.00 | 0.00 | 47 | 1009.4 |
| 20260505003015 | 7 | 320 | 22.5 | 25.7 | 0.00 | 0.00 | 0.00 | 48 | 1009.5 |
| 20260505002509 | 7 | 336 | 20.9 | 24.1 | 0.00 | 0.00 | 0.00 | 48 | 1009.5 |
| 20260505002009 | 7 | 334 | 22.5 | 27.4 | 0.00 | 0.00 | 0.00 | 47 | 1009.3 |
| 20260505001506 | 7 | 314 | 20.9 | 27.4 | 0.00 | 0.00 | 0.00 | 47 | 1009.4 |
| 20260505001003 | 7 | 278 | 20.9 | 25.7 | 0.00 | 0.00 | 0.00 | 47 | 1009.4 |
| 20260505000500 | 7 | 358 | 16.1 | 25.7 | 0.00 | 0.00 | 0.00 | 48 | 1009.5 |
| 20260504235957 | 7 | 317 | 16.1 | 20.9 | 0.00 | 0.00 | 0.00 | 48 | 1009.4 |
| 20260504235454 | 7 | 344 | 19.3 | 24.1 | 0.00 | 0.00 | 0.00 | 47 | 1008.9 |
| 20260504234951 | 7 | 340 | 16.1 | 20.9 | 0.00 | 0.00 | 0.00 | 48 | 1009.2 |
| 20260504234448 | 7 | 318 | 14.5 | 17.7 | 0.00 | 0.00 | 0.00 | 47 | 1009.2 |
| 20260504233944 | 7 | 330 | 25.7 | 29.0 | 0.00 | 0.00 | 0.00 | 47 | 1009.2 |
| 20260504233440 | 7 | 336 | 24.1 | 33.8 | 0.00 | 0.00 | 0.00 | 47 | 1009.2 |
| 20260504232937 | 8 | 309 | 17.7 | 27.4 | 0.00 | 0.00 | 0.00 | 46 | 1009.2 |
| 20260504232434 | 8 | 324 | 25.7 | 35.4 | 0.00 | 0.00 | 0.00 | 46 | 1009.3 |
| 20260504231931 | 8 | 278 | 24.1 | 29.0 | 0.00 | 0.00 | 0.00 | 47 | 1009.2 |
| 20260504231427 | 8 | 268 | 17.7 | 17.7 | 0.00 | 0.00 | 0.00 | 47 | 1009.3 |
| 20260504230924 | 7 | 341 | 17.7 | 22.5 | 0.00 | 0.00 | 0.00 | 47 | 1009.0 |
| 20260504230421 | 7 | 293 | 16.1 | 16.1 | 0.00 | 0.00 | 0.00 | 48 | 1009.2 |
| 20260504225920 | 7 | 306 | 24.1 | 33.8 | 0.00 | 0.00 | 0.00 | 46 | 1008.8 |
| 20260504225416 | 8 | 308 | 24.1 | 33.8 | 0.00 | 0.00 | 0.00 | 46 | 1009.3 |
| 20260504224914 | 8 | 309 | 17.7 | 22.5 | 0.00 | 0.00 | 0.00 | 48 | 1008.7 |
| 20260504224410 | 7 | 300 | 22.5 | 25.7 | 0.00 | 0.00 | 0.00 | 46 | 1009.2 |
| 20260504223907 | 9 | 297 | 19.3 | 35.4 | 0.00 | 0.00 | 0.00 | 44 | 1008.6 |
| 20260504223403 | 8 | 306 | 22.5 | 27.4 | 0.00 | 0.00 | 0.00 | 44 | 1008.6 |
| 20260504222859 | 8 | 309 | 27.4 | 38.6 | 0.00 | 0.00 | 0.00 | 45 | 1008.7 |
| 20260504222356 | 8 | 311 | 27.4 | 32.2 | 0.00 | 0.00 | 0.00 | 45 | 1008.5 |
| 20260504221855 | 8 | 323 | 27.4 | 35.4 | 0.00 | 0.00 | 0.00 | 46 | 1008.8 |
| 20260504221351 | 8 | 311 | 19.3 | 29.0 | 0.00 | 0.00 | 0.00 | 47 | 1008.8 |
| 20260504220848 | 8 | 303 | 19.3 | 22.5 | 0.00 | 0.00 | 0.00 | 45 | 1008.4 |
| 20260504220344 | 8 | 311 | 24.1 | 29.0 | 0.00 | 0.00 | 0.00 | 47 | 1008.5 |
| 20260504215842 | 8 | 337 | 16.1 | 17.7 | 0.00 | 0.00 | 0.00 | 47 | 1008.5 |
| 20260504215338 | 8 | 302 | 24.1 | 29.0 | 0.00 | 0.00 | 0.00 | 48 | 1008.6 |
| 20260504214834 | 8 | 318 | 24.1 | 29.0 | 0.00 | 0.00 | 0.00 | 49 | 1008.6 |
| 20260504214331 | 9 | 304 | 19.3 | 22.5 | 0.00 | 0.00 | 0.00 | 49 | 1008.5 |
| 20260504213828 | 8 | 334 | 12.9 | 17.7 | 0.00 | 0.00 | 0.00 | 54 | 1008.6 |
| 20260504213324 | 9 | 301 | 24.1 | 32.2 | 0.00 | 0.00 | 0.00 | 50 | 1008.4 |
| 20260504212822 | 9 | 311 | 32.2 | 37.0 | 0.00 | 0.00 | 0.00 | 47 | 1008.5 |
| 20260504212317 | 8 | 331 | 17.7 | 24.1 | 0.00 | 0.00 | 0.00 | 50 | 1008.3 |
| 20260504211815 | 8 | 318 | 17.7 | 22.5 | 0.00 | 0.00 | 0.00 | 51 | 1008.7 |
| 20260504211311 | 8 | 317 | 16.1 | 22.5 | 0.00 | 0.00 | 0.00 | 51 | 1008.5 |
| 20260504210809 | 8 | 287 | 17.7 | 22.5 | 0.00 | 0.00 | 0.00 | 49 | 1008.3 |
| 20260504210306 | 8 | 309 | 29.0 | 38.6 | 0.00 | 0.00 | 0.00 | 49 | 1008.4 |
| 20260504205803 | 8 | 320 | 20.9 | 29.0 | 0.00 | 0.00 | 0.00 | 51 | 1008.5 |
| 20260504205301 | 8 | 296 | 22.5 | 27.4 | 0.00 | 0.00 | 0.00 | 51 | 1008.5 |
| 20260504204758 | 8 | 316 | 16.1 | 22.5 | 0.00 | 0.00 | 0.00 | 50 | 1008.7 |
| 20260504204256 | 8 | 321 | 11.3 | 16.1 | 0.00 | 0.00 | 0.00 | 50 | 1008.7 |
| 20260504203756 | 8 | 335 | 12.9 | 14.5 | 0.00 | 0.00 | 0.00 | 50 | 1008.6 |
| 20260504203252 | 8 | 303 | 19.3 | 24.1 | 0.00 | 0.00 | 0.00 | 50 | 1008.3 |
| 20260504202747 | 8 | 296 | 29.0 | 38.6 | 0.00 | 0.00 | 0.00 | 50 | 1008.4 |
| 20260504202245 | 8 | 295 | 17.7 | 24.1 | 0.00 | 0.00 | 0.00 | 51 | 1008.5 |
| 20260504201742 | 8 | 340 | 12.9 | 14.5 | 0.00 | 0.00 | 0.00 | 53 | 1008.5 |
| 20260504201239 | 8 | 299 | 20.9 | 32.2 | 0.00 | 0.00 | 0.00 | 54 | 1008.4 |
| 20260504200737 | 8 | 303 | 20.9 | 25.7 | 0.00 | 0.00 | 0.00 | 54 | 1008.6 |
| 20260504200232 | 8 | 299 | 22.5 | 33.8 | 0.00 | 0.00 | 0.00 | 52 | 1008.6 |
| 20260504195729 | 7 | 314 | 24.1 | 29.0 | 0.00 | 0.00 | 0.00 | 54 | 1008.6 |
| 20260504195225 | 8 | 327 | 22.5 | 27.4 | 0.00 | 0.00 | 0.00 | 54 | 1008.5 |
| 20260504194722 | 7 | 300 | 14.5 | 24.1 | 0.00 | 0.00 | 0.00 | 53 | 1008.6 |
| 20260504194218 | 8 | 256 | 24.1 | 29.0 | 0.00 | 0.00 | 0.00 | 51 | 1008.6 |
| 20260504193715 | 8 | 279 | 19.3 | 25.7 | 0.00 | 0.00 | 0.00 | 53 | 1008.6 |
| 20260504193212 | 7 | 316 | 17.7 | 20.9 | 0.00 | 0.00 | 0.00 | 54 | 1008.6 |
| 20260504192710 | 8 | 337 | 22.5 | 27.4 | 0.00 | 0.00 | 0.00 | 53 | 1008.4 |
| 20260504192208 | 7 | 300 | 19.3 | 25.7 | 0.00 | 0.00 | 0.00 | 51 | 1008.4 |
| 20260504191707 | 8 | 297 | 24.1 | 33.8 | 0.00 | 0.00 | 0.00 | 49 | 1008.4 |
| 20260504191203 | 9 | 284 | 24.1 | 32.2 | 0.00 | 0.00 | 0.00 | 48 | 1008.2 |
| 20260504190658 | 8 | 309 | 12.9 | 16.1 | 0.00 | 0.00 | 0.00 | 51 | 1008.3 |
| 20260504190155 | 8 | 323 | 24.1 | 32.2 | 0.00 | 0.00 | 0.00 | 49 | 1008.3 |